{"data":{"norad_id":53467,"epoch":"2026-05-25T06:00:02.000160Z","epoch_age_seconds":49947,"freshness":"FRESH","line1":"1 53467U 22099C   26145.25002315  .00193465  00000+0  41595-2 0  9996","line2":"2 53467  97.6032 268.5073 0001646  68.5933 128.4704 15.43912991  5832","mean_motion":15.43912991,"eccentricity":0.0001646,"inclination_deg":97.6032,"raan_deg":268.5073,"arg_perigee_deg":68.5933,"mean_anomaly_deg":128.4704,"bstar":0.0041595,"rev_number":583,"period_min":93.26950471913,"perigee_km":433.45253454016,"apogee_km":435.69527897066,"semimajor_km":6812.7109067554,"source":"CELESTRAK","updated_at":"2026-05-25T13:38:17.408474Z"}}